Regional Weather Roundup
Issued by NWS Sterling, VA

Home | Current Version | Previous Version | Text Only | Print | Product List | Glossary On
Versions: 1 2 3 4 5 6 7 8 9 10 11 12 13 14 15 16 17 18 19 20 21 22 23 24 25 26 27 28 29 30 31 32 33 34 35 36 37 38 39 40 41 42 43 44 45 46 47 48 49 50
000
ASUS41 KLWX 230310
RWRLWX

REGIONAL WEATHER ROUNDUP
NATIONAL WEATHER SERVICE BALTIMORE MD/WASHINGTON DC
1000 PM EST SAT NOV 22 2014

Note: "FAIR" indicates few or no clouds below 12,000 feet
with no significant weather and/or obstructions to visibility.
 TC=TEMPERATURE CELSIUS

 * =Non NWS site. Station does not report precipitation (e.g. rain,
    snow, etc.), thunder, or fog.

DCZ001-MDZ009-015-VAZ040>042-051-053>054-230400-
WASHINGTON METRO

CITY           SKY/WX    TMP DP  RH WIND       PRES   REMARKS
WASHINGTON NAT CLOUDY    44  23  43 S8        30.29S
DULLES         CLOUDY    42  17  36 S10       30.25F
ANDREWS AFB    CLOUDY    42  18  39 SW10      30.27F
FT BELVOIR     CLOUDY    43  23  45 VRB5      30.29S
QUANTICO       MOCLDY    43  22  43 SW6       30.32R
COLLEGE PARK*  CLOUDY    45  18  33 S6        30.27S
LEESBURG*      CLOUDY    43  23  45 S7        30.25S
MANASSAS*      CLOUDY    43  18  36 S8        30.27S
GAITHERSBURG*  CLOUDY    43  16  33 S5        30.28S

$$

MDZ006>007-011-014-230400-
BALTIMORE METRO

CITY           SKY/WX    TMP DP  RH WIND       PRES   REMARKS
BWI AIRPORT    CLOUDY    42  17  36 SW5       30.25F
MD SCIENCE CTR   N/A     43  18  36 MISG      30.26F
MARTIN STATE   CLEAR     43  25  49 SE7       30.28F
ANNAPOLIS      MOCLDY    43  19  38 S6        30.28F
FORT MEADE*    CLOUDY    36  28  75 SW6       30.29S

$$

MDZ012-015-019>023-230400-
MARYLAND EASTERN SHORE

CITY           SKY/WX    TMP DP  RH WIND       PRES   REMARKS
OCEAN CITY     CLEAR     39  26  59 SW7       30.33S
SALISBURY      CLEAR     35  25  66 S6        30.32F
BAY BRIDGE AP*   N/A     45  21  39 S10G17    30.29S
CAMBRIDGE*     CLEAR     41  27  56 S3        30.30F
EASTON*        CLEAR     39  27  61 SW7       30.33

$$

MDZ017>025-230400-
SOUTHERN MARYLAND

CITY           SKY/WX    TMP DP  RH WIND       PRES   REMARKS
PATUXENT RIVER CLEAR     41  18  39 SW5       30.31S
ST INIGOES     CLEAR     44  18  35 SW13      30.32S
LEONARDTOWN*   CLEAR     41  19  42 SW7       30.32S

$$

MDZ003>005-230400-
NORTH CENTRAL MARYLAND

CITY           SKY/WX    TMP DP  RH WIND       PRES   REMARKS
FREDERICK*     MOCLDY    41  19  42 SW6       30.27R
HAGERSTOWN APT CLEAR     39  18  42 S5        30.19F
WESTMINSTER*   MOCLDY    41  16  36 S8        30.22S

$$

MDZ501>502-230400-
WESTERN MARYLAND

CITY           SKY/WX    TMP DP  RH WIND       PRES   REMARKS
OAKLAND*       MOCLDY    45  19  36 SW13      30.16R
CUMBERLAND*    MOCLDY    32  21  64 CALM      30.24R

$$

VAZ025>031-230400-
SHENANDOAH VALLEY

CITY           SKY/WX    TMP DP  RH WIND       PRES   REMARKS
WINCHESTER*    PTCLDY    45  14  29 SW6       30.21R
FRONT ROYAL*   CLOUDY    46  19  34 SW6       30.20S
LURAY*         MOCLDY    45  23  42 SW12      30.24S
NEW MARKET*    FAIR      42  19  40 SW9       30.23S
STAUNTON*      PTCLDY    38  17  43 CALM      30.28S
WAYNESBORO*    FAIR      34  17  51 CALM      30.25F

$$

WVZ021-048>050-054>055-230400-
EASTERN WEST VIRGINIA PANHANDLE

CITY           SKY/WX    TMP DP  RH WIND       PRES   REMARKS
MARTINSBURG    PTCLDY    33  19  56 CALM      30.21S
PETERSBURG*    PTCLDY    47  15  26 S14G20    30.20R

$$

VAZ036>039-050-230400-
CENTRAL FOOTHILLS

CITY           SKY/WX    TMP DP  RH WIND       PRES   REMARKS
CHARLOTTESVILL CLEAR     39  18  42 SW6       30.28S
CULPEPER*      MOCLDY    45  18  33 S8        30.28S
ORANGE*        CLOUDY    41  19  42 S7        30.30F
GORDONSVILLE*  FAIR      37  19  48 CALM      30.29S
WARRENTON*     CLOUDY    44  24  45 S12       30.26S

$$

VAZ055>057-230400-
NORTH AND CENTRAL PIEDMONT

CITY           SKY/WX    TMP DP  RH WIND       PRES   REMARKS
FREDERICKSBRG* CLEAR     41  19  42 S5        30.30S
STAFFORD*      MOCLDY    39  14  35 CALM      30.35R

$$

NCZ024-NYZ072-PAZ021-071-VAZ022-071-230400-
OTHER REGIONAL OBSERVATIONS

CITY           SKY/WX    TMP DP  RH WIND       PRES   REMARKS
NEW YORK CITY  CLOUDY    43  19  38 VRB5      30.23F
PHILADELPHIA   MOCLDY    42  24  49 S9        30.27F
PITTSBURGH     CLOUDY    48  30  49 S7        30.10S
ROANOKE        CLEAR     35  19  52 CALM      30.32F
RICHMOND       PTCLDY    32  19  58 S5        30.33S
RALEIGH        PTCLDY    37  20  50 CALM      30.35F

$$

ANZ530>537-230400-
MARINE OBSERVATIONS

STATION/POSITION TIME  TEMP    WIND        PRES
                       AIR SEA DIR/SP/G
                 (UTC) (F)     (DEG/KT/KT) (MB)
THOMAS PT LIGHT  0300   45 47  200/ 16/ 17 1026.9S
BALT KEY BRIDGE  0300   43     170/  8/ 10 1024.5F
COVE POINT       0300   43     220/ 10/ 12 1026.1S
LEWISETTA        0300   42 42  220/ 10/ 12 1026.5S
SOLOMONS ISLAND  0300      48                N/A
PINEY POINT      0300          240/  7/  9   N/A

$$



USA.gov is the U.S. government's official web portal to all federal, state and local government web resources and services.